STARLINK-3739, 52266

Orbit data source: Space-Track

STARLINK-3739, 52266 is a payload satellite owned by SpaceX/Seattle (US) in LEO that was launched on Thu, 21 Apr 2022 UTC via an FALCON 9 launch vehicle from the Air Force Eastern Test Range (AFETR). Payload-class satellites include a variety of spacecraft equipped with specific instruments for various scientific and technological missions. These include communications satellites like Starlink; space stations such as the ISS; scientific satellites like the Hubble; Earth observation satellites from companies like Planet Labs, Umbra, and HawkEye 360; GPS; miniature CubeSats for education and research; and military/defense satellites.

Loading next visibility...
Identifier
52266, 2022-041F
Orbit
LEO
Country
Flag of USUS
Related business
Manufacturer
SpaceX/Seattle
Mission
Operational Commercial Communications
Bus & Motor
STARLINK, Unknown motor
Mass
297 kg wet, ~275 kg dry
Launch date (UTC)
2022-04-21 (4 years ago)
Launch vehicle
FALCON 9
Launch site
Air Force Eastern Test Range (AFETR)
Object type
Payload
Rocket body
Debris
Shape & HBR
Box + 1 Pan, 10.1 m
Radar Cross Section
11.087 m², Large (>1 m²)

Expand to show TLE details & history
Last TLE update: 1 day ago

TLE from 1 day ago
0 STARLINK-3739
1 52266U 22041F   26236.28429628  .00015833  00000-0  94990-3 0  9994
2 52266  53.2128  76.0012 0002651 109.5145 250.6135 15.11106015239679
Epoch: 2026-08-24T06:49Z
TLE epoch observation values (Epoch: 2026-08-24T06:49:23.198Z)
Latitude
0.00001°
Longitude
1.08634°
Altitude
534.332 km
Speed
7.596 km/s
True Right ascension
05h 04m 00s
True Declination
0° 00' 00"
Sunlit
Object was in daylight at epoch
Visualization orbit readout
Latitude
Unknown
Longitude
Unknown
Altitude
Unknown
Speed
Unknown
Apparent Right ascension
Unknown
Apparent Declination
Unknown
Sunlit
N/A
Visualization observer readout
Local Sidereal Time
02:50:38
Azimuth
Unknown
Elevation
Unknown
Doppler factor
Unknown
Orbital elements
Apogee altitude
534.904 km
Perigee altitude
531.239 km
Semi-major axis
6,911.209 km
Eccentricity
0.00027
Inclination
53.2128°
RAAN
76.0012°
Arg. of periapsis
109.5145°
True anomaly
250.58485°
Mean anomaly
250.6135°
Eccentric anomaly
250.59917°
Mean motion
3.77757 °/min
Orbital period
95.3 mins
BSTAR
0.0009499
Loading maneuver chart data...
Computing Atmospheric mass density...
Loading historical data...
Loading historical data...
Loading historical data...
Loading historical data...
Loading historical data...
Loading historical data...
Loading historical data...

Documentation

Showing up to 5 results
|